This demonstration page uses our WeatherBlox Daily Observations layout. Learn more.

41.55636, -103.73856

Hourly Observations for May 29, 2017

Temp ( °F °C ) Dew Point ( °F °C ) Humidity (%) Winds ( mph kmh ) Pressure ( in mb ) Visibility ( mi km ) Precip ( " mm )
12:53 am 00:53 Clear 48 8.9 44 6.7 86 86 NNW 6 9 30.1 1019 10 16.0934 0 0
1:53 am 01:53 Clear 50 10 43 6.1 77 77 WNW 9 15 30.09 1019 10 16.0934 0 0
2:53 am 02:53 Mostly Cloudy 50 10 43 6.1 77 77 WNW 10 17 30.09 1019 10 16.0934 0 0
3:53 am 03:53 Clear 48 8.9 42 5.6 80 80 NW 5 7 30.1 1019 10 16.0934 0 0
4:53 am 04:53 Clear 46 7.8 41 5 83 83 NW 6 9 30.14 1021 10 16.0934 0 0
5:53 am 05:53 Sunny 45 7.2 41 5 86 86 NW 6 9 30.13 1020 10 16.0934 0 0
6:53 am 06:53 Sunny 51 10.6 42 5.6 71 71 W 9 15 30.12 1020 10 16.0934 0 0
7:53 am 07:53 Sunny 56 13.3 45 7.2 67 67 W 8 13 30.11 1020 10 16.0934 0 0
8:53 am 08:53 Sunny 60 15.6 45 7.2 58 58 W 10 17 30.14 1021 10 16.0934 0 0
9:53 am 09:53 Sunny 66 18.9 42 5.6 42 42 WNW 10 17 30.12 1020 10 16.0934 0 0
10:53 am 10:53 Mostly Cloudy 69 20.6 37 2.8 31 31 NNW 16 26 30.12 1020 10 16.0934 0 0
11:53 am 11:53 Mostly Sunny 70 21.1 36 2.2 29 29 NW 16 26 30.11 1020 10 16.0934 0 0
12:53 pm 12:53 Mostly Sunny 71 21.7 33 0.6 25 25 NNW 15 24 30.1 1019 10 16.0934 0 0
1:53 pm 13:53 Sunny 72 22.2 33 0.6 24 24 NW 17 28 30.08 1019 10 16.0934 0 0
2:53 pm 14:53 Sunny 73 22.8 33 0.6 23 23 NW 15 24 30.06 1018 10 16.0934 0 0
3:53 pm 15:53 Sunny 73 22.8 34 1.1 24 24 NW 20 31 30.05 1018 10 16.0934 0 0
4:53 pm 16:53 Sunny 73 22.8 32 0 22 22 NNW 22 35 30.05 1018 10 16.0934 0 0
5:53 pm 17:53 Sunny 71 21.7 32 0 24 24 NNW 22 35 30.04 1017 10 16.0934 0 0
6:53 pm 18:53 Sunny 70 21.1 31 -0.6 23 23 NNW 14 22 30.04 1017 10 16.0934 0 0
7:53 pm 19:53 Sunny 64 17.8 35 1.7 34 34 NNW 8 13 30.05 1018 10 16.0934 0 0
8:53 pm 20:53 Clear 58 14.4 37 2.8 46 46 NNE 5 7 30.07 1018 10 16.0934 0 0
9:53 pm 21:53 Clear 53 11.7 38 3.3 57 57 NNE 3 6 30.09 1019 10 16.0934 0 0
10:53 pm 22:53 Clear 51 10.6 37 2.8 59 59 NNE 3 6 30.09 1019 10 16.0934 0 0
11:53 pm 23:53 Clear 46 7.8 38 3.3 73 73 NNW 3 6 30.11 1020 10 16.0934 0 0

Powered by AerisWeather